sat.trackr.live / text

‹ back to catalog

STARLINK-31149

NORAD 58863 · 2024-019L

PAYLOAD ACTIVE UNKNOWN

§ Identity

Operator
Country
US
Launch date
2024-01-29
Launch site
AFETR
Launch vehicle
Mass (kg)
RCS (m²)

Purposes: comms

External: N2YO · Heavens-Above · Gunter

§ Orbital elements

Epoch: 2026-05-24T13:52:23.714400Z

Period
94.27 min
Inclination
43.0001°
Eccentricity
0.0000861
Mean motion
15.27580947 rev/d
Perigee alt
482.5 km
Apogee alt
483.6 km
Semi-major
6,861.2 km
B*
3.3974e-5
RAAN
179.9112°
Arg perigee
263.1075°
Mean anomaly
96.9679°
Rev number
13,069

§ Raw data

STARLINK-311491 58863U 24019L   26144.57805225  .00000673  00000+0  33974-4 0  99922 58863  43.0001 179.9112 0000861 263.1075  96.9679 15.27580947130692

JSON: /api/v1/satellites/58863 · /tle

For live sub-satellite position, see the globe view (requires WebGL).

§ Visibility from observer

Set your observer location to see the next 7 days of passes ≥ 10°. The values pass through the URL so the page stays shareable.

No JS? Fill the form by hand. The geolocation button needs JavaScript.